Location: Karaa?aç
(36.7158°N, 30.4165°E)
Time: 02:07:37
(UTC+00:00)

Daily predictions for brighter satellites

Satellite Brightness Start Highest point End
(mag) Time Altitude Azimuth Time Altitude Azimuth Time Altitude Azimuth
COSMOS 2441 4.4 00:00:54 10° NNE 00:05:43 73° ESE 00:06:46 54° SSE
Meteor 2-13 Rocket 4.4 00:03:09 10° NNW 00:09:12 68° W 00:11:04 45° SSW
SL-16 R/B 3.6 00:04:06 10° SE 00:09:55 42° ENE 00:15:43 10° N
Cosmos 1844 Rocket 3.1 00:09:59 40° WSW 00:11:18 48° WNW 00:16:41 10° N
Cosmos 2239 Rocket 4.4 00:11:24 45° SSW 00:13:18 71° W 00:19:27 10° N
Cosmos 1606 Rocket 3.5 00:09:28 10° N 00:13:55 86° E 00:14:45 58° SSE
CZ-2C R/B 2.9 00:10:47 10° N 00:16:03 83° WNW 00:17:23 50° SSW
Cosmos 1727 Rocket 4.2 00:16:39 10° NNW 00:22:48 54° W 00:24:57 38° SW
Alouette 2 Rocket 3.5 00:21:47 48° S 00:22:57 76° E 00:26:41 10° NNE
SL-24 DEB 4.2 00:19:25 10° N 00:24:00 83° E 00:25:26 44° S
Cosmos 1726 Rocket 3.5 00:23:22 10° N 00:27:49 89° ESE 00:29:14 43° S
Cosmos 1000 Rocket 4.5 00:24:13 10° NNW 00:30:25 68° W 00:33:26 31° SSW
CZ-2D R/B 2.5 00:28:59 10° N 00:34:03 47° WNW 00:35:45 35° WSW
CZ-2C R/B 2.8 00:34:15 38° SSW 00:35:51 51° W 00:41:06 10° NNW
USA 81 4.3 00:31:16 10° N 00:36:32 69° E 00:40:26 18° SSE
Cosmos 1238 Rocket 3.9 00:34:36 10° NNE 00:37:23 30° E 00:38:52 19° SE
ADEOS II 2.1 00:33:08 10° N 00:38:20 66° WNW 00:40:28 35° SW
ALOS 2.3 00:34:37 10° NNE 00:39:14 73° E 00:41:24 31° S
NOSS 2-2 (E) 3.3 00:39:38 45° SSE 00:40:12 51° ESE 00:43:17 10° NE
SWAS 4.3 00:40:49 44° SSW 00:42:06 83° ESE 00:46:19 10° NNE
Cosmos 2278 Rocket 4.1 00:39:20 10° SSE 00:43:40 23° E 00:48:00 10° NE
Lacrosse 5 3.7 00:41:07 14° SSE 00:43:50 22° ESE 00:47:38 10° ENE
ASTEX 1 3.3 00:41:59 33° S 00:44:07 69° W 00:48:58 10° N
Cosmos 1607 3.9 00:38:06 10° NNW 00:44:27 74° WSW 00:50:39 10° SSE
ATLAS 5 CENTAUR R/B 0.6 00:46:06 62° SW 00:46:35 86° WNW 00:49:59 10° NNE
CZ-2C R/B 4.2 00:44:04 10° NE 00:47:47 24° E 00:51:31 10° SSE
AQUA 3.9 00:44:47 10° N 00:49:27 61° WNW 00:51:26 33° SW
FENGYUN 3A 3.9 00:44:42 10° N 00:49:55 53° WNW 00:52:26 29° SW
Cosmos 1603 4.4 00:46:22 10° NW 00:51:26 33° WSW 00:53:01 29° SW
Timation 2 Rocket 4.4 00:52:23 26° SW 00:55:58 51° WNW 01:02:12 10° NNE
SEDSat Delta rocket 3.4 00:55:45 34° SSW 00:56:04 35° S 00:59:46 10° ESE
Cosmos 2298 Rocket 4.0 00:55:14 28° SSW 00:58:03 72° WNW 01:03:23 10° NNE
Cosmos 1535 Rocket 4.4 00:54:45 23° SSW 00:58:46 71° W 01:04:54 10° N
Cosmos 1271 Rocket 4.3 00:56:05 10° SSE 00:59:07 28° E 01:02:15 10° NNE
Cosmos 1812 2.7 00:56:08 10° NNW 00:59:36 51° W 01:00:35 38° SW
Resurs 1-4 Rocket 3.4 00:56:52 10° NNW 01:01:07 25° WNW 01:03:21 19° WSW
Cosmos 2058 3.4 01:04:15 30° SW 01:05:39 41° W 01:09:32 10° N
Delta 2 Rocket 4.5 01:08:32 22° S 01:08:32 22° S 01:11:09 10° SSE
Meteor 2-19 Rocket 4.4 01:02:28 10° N 01:08:37 73° W 01:14:44 10° S
Cosmos 724 4.3 01:03:58 10° NW 01:09:40 59° WSW 01:15:25 10° SSE
NOSS 2-2 (C) 3.8 01:09:56 25° W 01:11:05 33° NW 01:13:57 10° NNE
Cosmos 1758 Rocket 3.9 01:08:01 13° S 01:11:53 65° E 01:16:14 10° NNE
Cosmos 1605 Rocket 4.0 01:10:50 18° SSW 01:15:26 63° W 01:21:31 10° N
BlueWalker 3 4.2 01:12:27 10° NNW 01:15:43 28° NE 01:18:59 10° E
Cosmos 2058 Rocket 3.3 01:11:56 10° NNW 01:16:11 48° W 01:19:08 18° SSW
SAR-Lupe-4 4.0 01:13:42 10° N 01:17:07 46° WNW 01:18:49 25° SW
NOSS 2-3 (D) 3.3 01:16:58 25° SW 01:18:53 59° NW 01:22:39 10° NNE
Envisat 3.0 01:16:58 10° NNE 01:22:04 87° WNW 01:26:42 12° SSW
IRS-1D 4.4 01:17:53 10° NNE 01:22:48 46° E 01:27:35 10° S
H-2A R/B 4.2 01:18:58 10° NE 01:23:01 23° E 01:26:59 10° SE
NOSS 2-2 (D) 3.5 01:21:33 23° WSW 01:23:16 41° WNW 01:26:17 10° NNE
Cosmos 1862 3.7 01:22:22 10° S 01:26:06 59° E 01:29:51 10° NNE
Cosmos 1544 4.1 01:27:16 17° W 01:27:27 17° WNW 01:29:15 10° NNW
Cosmos 1500 3.8 01:24:52 10° SSE 01:28:10 48° E 01:31:29 10° NNE
Cosmos 1833 Rocket 3.4 01:23:15 10° NNW 01:28:48 57° ENE 01:34:20 10° SE
Iridium 4 Rocket 3.8 01:25:36 10° NNW 01:30:02 43° W 01:34:22 12° SSW
Cosmos 1626 Rocket 4.0 01:28:24 17° SSW 01:31:33 46° W 01:35:48 10° N
Meteor 2-2 Rocket 4.2 01:31:29 10° N 01:37:08 88° W 01:42:47 10° S
USA 276 1.8 01:35:23 20° SW 01:37:19 87° NW 01:40:13 10° NE
Aurora 2 Rocket 4.4 01:36:10 13° SSW 01:38:56 21° SSE 01:43:23 10° ESE
METEOR-M 4.2 01:34:07 10° N 01:39:23 63° WNW 01:44:38 10° SSW
Cosmos-2242 3.0 01:38:32 10° NNW 01:42:47 60° W 01:46:57 10° S
CZ-4 R/B 4.0 01:38:03 10° N 01:42:56 62° WNW 01:47:51 10° SSW
Cosmos 1943 Rocket 3.2 01:37:53 10° S 01:43:15 46° ESE 01:48:37 10° NE
USA 267 3.6 01:38:13 10° NE 01:44:36 58° NW 01:50:58 10° WSW
YAOGAN 6 2.2 01:46:02 10° N 01:49:12 70° WNW 01:52:19 10° SSW
ISS -1.4 01:47:36 10° S 01:49:52 17° SE 01:52:09 10° E
PAYLOAD A 4.1 01:46:43 10° N 01:52:02 81° WNW 01:57:26 10° SSW
SL-16 R/B 3.5 01:48:19 10° SSW 01:53:32 28° W 01:58:46 10° NW
Cosmos 1782 3.3 01:52:21 10° NNW 01:55:55 38° W 01:59:28 10° SSW
Meteor 1-26 Rocket 4.2 01:52:39 10° N 01:58:03 84° E 02:03:26 10° S
Cosmos 1378 2.8 01:55:19 10° NNW 01:58:32 59° W 02:01:43 10° S
Genesis I 3.9 01:57:26 10° NW 02:00:36 29° WSW 02:03:45 10° S
Aureole 2 4.4 02:01:58 10° SSW 02:05:01 49° WNW 02:07:53 10° N
Meteor 2-3 Rocket 4.4 01:59:44 10° SW 02:05:07 40° WNW 02:10:32 10° N
Cosmos 1602 4.1 02:04:07 10° S 02:07:38 61° E 02:11:10 10° NNE
Cosmos 1269 Rocket 4.2 02:03:13 10° NNW 02:08:33 82° ENE 02:13:50 10° SSE
Cosmos 2173 Rocket 4.1 02:04:13 10° SSW 02:10:24 67° W 02:16:32 10° N
Cosmos 1802 Rocket 4.2 02:04:10 10° S 02:10:35 88° E 02:17:02 10° N
Cosmos 1459 Rocket 4.1 02:05:09 10° SSW 02:11:20 69° W 02:17:40 10° N
